Hourly Data Report for October 12, 2013

All times are specified in Local Standard Time (LST). Add 1 hour to adjust for Daylight Saving Time where and when it is observed.

RANKIN INLET A
NUNAVUT

62°48'38.000" N
92°06'53.000" W
32.30 m
2303405
71083
YRT

Download Data

Hourly Data (October 2013)
Hourly Data Report for October 12, 2013
Temp Definition
°C
Dew Point Temp Definition
°C
Rel Hum Definition
%
Wind Dir Definition
10's deg

Wind Spd Definition
km/h
Visibility Definition
km
Stn Press Definition
kPa
Hmdx Definition


Wind Chill Definition


Weather Definition


TIME
00:00 Legend Double Dagger 2.6 2.5 99 27 9 0.4 100.50     Rain Showers,Fog
01:00 Legend Double Dagger 2.2 2.1 99 33 14 0.6 100.45     Rain Showers,Fog
02:00 Legend Double Dagger 1.9 1.8 99 35 13 0.6 100.43     Rain Showers,Fog
03:00 Legend Double Dagger 1.8 1.7 99 35 18 3.2 100.39     Rain Showers,Fog
04:00 Legend Double Dagger 1.6 1.5 99 35 18 3.2 100.34     Rain Showers,Fog
05:00 Legend Double Dagger 1.9 1.6 98 2 12 6.4 100.36     Rain Showers,Fog
06:00 Legend Double Dagger 1.8 1.1 95 4 12 6.4 100.31     Rain Showers,Fog
07:00 Legend Double Dagger 1.6 0.7 94 1 12 16.1 100.29     Rain Showers
08:00 Legend Double Dagger 1.3 0.6 95 34 17 12.9 100.30     Rain Showers
09:00 Legend Double Dagger 1.6 1.0 96 35 17 16.1 100.27     Rain Showers
10:00 Legend Double Dagger 2.0 1.1 94 1 15 24.1 100.21     Rain Showers
11:00 Legend Double Dagger 2.2 1.2 93 36 20 24.1 100.16     Rain Showers
12:00 Legend Double Dagger 2.4 1.2 92 36 20 24.1 100.08     Rain Showers
13:00 Legend Double Dagger 2.5 1.5 93 36 21 24.1 100.06     Rain Showers
14:00 Legend Double Dagger 2.3 1.3 93 36 21 24.1 100.03     Rain Showers
15:00 Legend Double Dagger 2.0 1.0 93 1 22 24.1 100.02     Rain Showers
16:00 Legend Double Dagger 1.8 0.9 94 35 31 24.1 100.02     Rain Showers
17:00 Legend Double Dagger 1.7 0.7 93 36 32 24.1 99.99     Rain Showers
18:00 Legend Double Dagger 2.1 0.5 89 36 28 24.1 99.92     Rain Showers
19:00 Legend Double Dagger 1.6 0.6 93 36 27 24.1 99.89     Rain Showers
20:00 Legend Double Dagger 1.8 0.8 93 36 30 24.1 99.81     Rain Showers
21:00 Legend Double Dagger 1.9 0.7 92 1 37 24.1 99.74     Rain Showers
22:00 Legend Double Dagger 1.6 0.6 93 36 35 24.1 99.73     Rain Showers
23:00 Legend Double Dagger 1.6 0.4 92 1 41 24.1 99.69     Rain Showers

Notes on Data Quality.

Legend

  • E = Estimated
  • M = Missing
  • NA = Not Available
  • ‡ = Partner data that is not subject to review by the National Climate Archives
Date modified: